SCP
0 0 0 0 0 0 0 0 0 0 0 0 0 0 0 0 0 0 0 0 0 0 0 0 0 0 0 1 0 1 0 0 0 0 0 0 0 0 0 0 0 0 0 0 0 0 0 0 0 0 0 0 0 0
0 0 0 0 0 0 0 0 0 0 0 0 0 0 0 0 0 0 0 0 0 0 0 0 0 0 0 0 1 1 1 1 0 0 0 0 0 0 0 0 0 0 0 0 0 0 0 0 0 0 0 0 0 0
0 0 0 0 0 0 0 0 0 0 0 0 0 0 0 0 0 0 0 0 0 0 0 0 0 0 0 0 0 2 1 1 1 1 0 0 0 0 0 0 0 0 0 0 0 0 0 0 0 0 0 0 0 0
0 0 0 0 0 0 0 0 0 0 0 0 0 0 0 0 0 0 0 0 0 0 0 0 0 0 0 0 0 0 1 1 1 1 0 0 0 0 0 0 0 0 0 0 0 0 0 0 0 0 0 0 0 0
0 0 0 0 0 0 0 0 0 0 0 0 0 0 0 0 0 0 0 0 0 0 0 0 0 0 0 0 0 0 0 1 0 0 0 0 0 0 0 0 0 0 0 0 0 0 0 0 0 0 0 0 0 0
0 0 0 0 0 0 0 0 0 0 0 0 0 0 0 0 0 0 0 0 0 0 0 0 0 0 0 0 0 0 0 0 0 0 0 0 0 0 0 0 0 0 0 0 0 0 0 0 0 0 0 0 0 0
0 0 0 0 0 0 0 0 0 0 0 0 0 0 0 0 0 0 0 0 0 0 0 0 -0 -0 0 0 0 0 0 0 0 0 0 0 0 0 0 0 0 0 0 0 0 0 0 0 0 0 0 0 0 0
0 0 0 0 0 0 0 0 0 0 0 0 0 0 0 0 0 0 0 0 0 0 0 0 0 -0 0 0 0 0 0 0 0 0 0 0 0 0 0 0 0 0 0 0 0 0 0 0 0 0 0 0 0 0
0 0 0 0 0 0 0 0 0 0 0 0 0 0 0 0 0 0 0 0 0 0 0 0 0 0 0 0 0 0 0 0 0 0 0 0 0 0 0 0 0 0 0 0 0 0 0 0 0 0 0 0 0 0
0 0 0 0 0 0 0 0 0 0 0 0 0 0 0 0 0 0 0 0 0 0 0 0 0 0 0 0 0 0 0 0 0 0 0 0 0 0 0 0 0 0 0 0 0 0 0 0 0 0 0 0 0 0
0 0 0 0 0 0 0 0 0 0 0 0 0 0 0 0 0 0 0 0 0 0 0 0 0 0 0 0 0 0 0 0 0 0 0 0 0 0 0 0 0 0 0 0 0 0 0 0 0 0 0 0 0 0
0 0 0 0 0 0 0 0 0 0 0 0 0 0 0 0 0 0 0 0 0 0 0 0 0 0 0 0 0 0 0 0 0 0 0 0 0 0 0 0 0 0 0 0 0 0 0 0 0 0 0 0 0 0
0 0 0 0 0 0 0 0 0 0 0 0 0 0 0 0 0 0 0 0 0 0 0 0 0 0 0 0 0 0 0 0 0 0 0 0 0 0 0 0 0 0 0 0 0 0 0 0 0 0 0 0 0 0
0 0 0 0 0 0 0 0 0 0 0 0 0 0 0 0 0 0 0 0 0 0 0 0 0 0 0 0 0 0 0 0 0 0 0 0 0 0 0 0 0 0 0 0 0 0 0 0 0 0 0 0 0 0
0 0 0 0 0 0 0 0 0 0 0 0 0 0 0 0 0 0 0 0 0 0 0 0 0 0 0 0 0 0 0 0 0 0 0 0 0 0 0 0 0 0 0 0 0 0 0 0 0 0 0 0 0 0
0 0 0 0 0 0 0 0 0 0 0 0 0 0 0 0 0 0 0 0 0 0 0 0 0 0 0 0 0 0 0 0 0 0 0 0 0 0 0 0 0 0 0 0 0 0 0 0 0 0 0 0 0 0
0 0 0 0 0 0 0 0 0 0 0 0 0 0 0 0 0 0 0 0 0 0 0 0 0 0 0 0 0 0 0 0 0 0 0 0 0 0 0 0 0 0 0 0 0 0 0 0 0 0 0 0 0 0
0 0 0 0 0 0 0 0 0 0 0 0 0 0 0 0 0 0 0 0 0 0 0 0 0 0 0 0 0 0 0 0 0 0 0 0 0 0 0 0 0 0 0 0 0 0 0 0 0 0 0 0 0 0
0 0 0 0 0 0 0 0 0 0 0 0 0 0 0 0 0 0 0 0 0 0 0 0 0 0 0 0 0 0 0 0 0 0 0 0 0 0 0 0 0 0 0 0 0 0 0 0 0 0 0 0 0 0
0 0 0 0 0 0 0 0 0 0 0 0 0 0 0 0 0 0 0 0 0 0 0 0 0 0 0 0 0 0 0 0 0 0 0 0 0 0 0 0 0 0 0 0 0 0 0 0 0 0 0 0 0 0
0 0 0 0 0 0 0 0 0 0 0 0 0 0 0 0 0 0 0 0 0 0 0 0 0 0 0 0 0 0 0 0 0 0 0 0 0 0 0 0 0 0 0 0 0 0 0 0 0 0 0 0 0 0
0 0 0 0 0 0 0 0 0 0 0 0 0 0 0 0 0 0 0 0 0 0 0 0 0 0 0 0 0 0 0 0 0 0 0 0 0 0 0 0 0 0 0 0 0 0 0 0 0 0 0 0 0 0
0 0 0 0 0 0 0 0 0 0 0 0 0 0 0 0 0 0 0 0 0 0 0 0 0 0 0 0 0 0 0 0 0 0 0 0 0 0 0 0 0 0 0 0 0 0 0 0 0 0 0 0 0 0
0 0 0 0 0 0 0 0 0 0 0 0 0 0 0 0 0 0 0 0 0 0 0 0 0 0 0 0 0 0 0 0 0 0 0 0 0 0 0 0 0 0 0 0 0 0 0 0 0 0 0 0 0 0
0 0 0 0 0 0 0 0 0 0 0 0 0 0 0 0 0 0 0 0 0 0 0 0 0 0 0 0 0 0 0 0 0 0 0 0 0 0 0 0 0 0 0 0 0 0 0 0 0 0 0 0 0 0
0 0 0 0 0 0 0 0 0 0 0 0 0 0 0 0 0 0 0 0 0 0 0 0 0 0 0 0 0 0 0 0 0 0 0 0 0 0 0 0 0 0 0 0 0 0 0 0 0 0 0 0 0 0
0 0 0 0 0 0 0 0 0 0 0 0 0 0 0 0 0 0 0 0 0 0 0 0 0 0 0 0 0 0 0 0 0 0 0 0 0 0 0 0 0 0 0 0 0 0 0 0 0 0 0 0 0 0
0 0 0 0 0 0 0 0 0 0 0 0 0 0 0 0 0 0 0 0 0 0 0 0 0 0 0 0 0 0 0 0 0 0 0 0 0 0 0 0 0 0 0 0 0 0 0 0 0 0 0 0 0 0
-0 -0 0 0 0 0 0 0 0 0 0 0 0 0 0 0 0 0 0 0 0 0 0 0 0 0 0 0 0 0 0 0 0 0 0 0 0 0 0 0 0 0 0 0 0 0 0 0 0 0 0 0 0 0
-0 0 0 0 -0 -0 -0 0 0 0 0 0 0 0 0 0 0 0 0 0 0 0 0 0 0 0 0 0 0 0 0 0 0 0 0 0 0 0 0 0 0 0 0 0 0 0 0 0 0 0 0 0 0 0
-0 -0 -0 -0 -0 0 -0 0 -0 -0 -0 0 0 0 0 0 0 0 0 0 0 0 0 0 0 0 0 0 0 0 0 0 0 0 0 0 0 0 0 0 0 0 0 0 0 0 0 0 0 0 0 0 0 0
-0 0 -0 0 0 -0 -0 -0 0 -0 -0 -0 -0 0 0 0 0 0 0 0 0 0 0 0 0 0 0 0 0 0 0 0 0 0 0 0 0 0 0 0 0 0 0 0 0 0 0 0 0 0 0 0 0 0
0 0 0 0 0 -0 -0 0 -0 -0 0 -0 -0 -0 0 0 0 0 0 0 0 0 0 0 0 0 0 0 0 0 0 0 0 0 0 0 0 0 0 0 0 0 0 0 0 0 0 0 0 0 0 0 0 0
Wind_Speed_500mb
54 50 56 42 35 27 23 16 10 7 5 5 7 10 13 17 20 20 10 26 10 12 9 6 9 10 9 17 10 15 11 10 13 15 10 9 6 12 11 10 8 10 10 14 12 10 18 22 18 8 17 17 14 8
37 49 59 47 40 32 24 26 16 10 7 7 7 10 12 15 17 19 8 23 11 3 10 6 7 6 2 8 11 9 7 7 8 11 7 4 7 6 6 14 13 15 17 9 9 10 7 19 3 19 21 16 13 10
43 37 42 49 40 31 26 24 22 17 13 10 10 10 11 14 18 18 18 25 9 5 6 5 5 8 10 11 5 8 5 3 2 3 2 4 4 9 10 16 21 13 7 11 14 19 12 22 10 20 22 17 16 15
51 46 47 47 41 36 35 31 30 25 19 15 14 12 11 12 14 17 15 20 12 10 9 9 3 5 14 12 8 4 7 3 8 2 5 5 5 3 12 11 11 12 5 8 16 25 9 18 27 23 25 21 21 20
56 58 50 52 47 45 41 36 32 28 24 20 17 16 13 11 12 12 11 14 16 6 12 10 3 2 8 11 11 7 3 3 8 10 5 4 5 3 7 12 16 23 15 12 7 20 5 12 18 26 28 29 27 25
52 55 50 48 45 47 45 43 39 36 31 24 19 18 17 13 10 8 2 9 12 13 8 6 4 2 4 4 8 8 6 3 2 5 8 4 3 5 7 13 11 3 5 10 13 8 6 3 3 10 27 31 31 28
52 54 50 44 42 40 39 36 36 36 33 27 21 18 18 14 8 3 2 13 14 5 4 10 7 3 7 4 5 4 8 7 4 4 2 4 8 5 8 14 1 11 12 17 15 15 19 20 15 10 19 29 34 31
53 52 53 48 47 36 34 30 32 34 32 27 22 18 16 13 8 7 9 8 11 3 6 9 3 6 6 7 7 4 3 2 6 5 3 7 3 8 8 12 14 18 21 22 23 22 21 14 14 12 15 23 34 35
51 54 51 49 47 39 30 26 26 28 27 23 16 10 8 5 2 8 8 7 7 1 10 6 10 5 9 6 2 5 4 7 5 9 8 7 7 9 7 18 14 17 15 17 15 20 19 18 14 7 10 16 26 33
46 52 53 48 52 41 34 28 23 21 20 16 10 2 6 9 8 6 1 3 3 7 9 13 11 4 8 9 10 6 4 8 8 11 7 8 19 31 17 11 16 20 20 17 14 17 17 16 15 13 14 14 18 22
44 48 56 55 46 45 42 33 24 18 17 11 10 8 5 9 9 6 8 11 14 9 16 20 20 15 8 10 8 7 4 10 7 8 6 9 13 27 13 11 16 18 21 23 24 21 11 10 6 6 6 7 7 8
44 44 50 55 55 48 40 37 30 25 13 18 11 8 10 6 9 11 9 10 11 12 17 23 25 21 7 4 7 7 6 5 8 11 7 8 7 13 8 8 12 11 9 13 18 19 14 11 12 14 14 13 11 9
44 42 45 51 56 54 45 37 36 30 21 11 7 12 10 9 2 12 16 11 11 13 13 11 12 18 4 10 11 9 10 12 8 8 8 5 14 10 6 3 5 9 12 15 15 19 18 17 17 16 16 15 13 10
45 43 43 49 54 53 48 40 40 30 18 11 15 3 12 11 13 12 15 19 12 12 18 24 23 16 22 17 12 9 10 6 9 10 20 9 15 11 10 9 10 15 17 17 18 20 22 19 21 21 20 19 18 17
46 42 43 46 51 53 48 46 39 36 20 7 10 9 17 18 13 22 7 7 10 12 20 22 17 18 18 10 9 11 10 11 12 19 6 24 21 20 20 20 21 21 20 19 19 20 21 20 24 27 25 24 23 21
45 41 44 47 53 56 55 48 42 22 9 6 10 12 17 16 19 21 18 15 14 19 22 19 10 9 13 9 16 15 11 12 8 11 19 24 27 26 25 26 26 27 28 29 28 27 26 24 26 26 24 22 21 20
46 30 46 50 60 54 57 46 26 14 14 10 16 24 22 14 16 23 18 18 17 21 16 11 10 13 12 13 20 14 22 12 21 19 20 25 28 28 28 29 30 31 30 29 28 26 25 23 21 19 19 17 15 16
38 32 39 59 68 56 58 23 13 15 17 23 23 21 21 17 6 9 16 12 16 22 23 8 9 12 10 15 15 18 8 9 13 25 28 30 30 30 29 30 29 28 28 26 24 22 19 16 13 13 14 17 18 19
31 33 52 66 71 44 14 20 13 10 21 25 36 12 18 18 19 10 8 13 20 10 8 10 11 12 15 10 12 5 14 17 21 25 29 30 30 31 30 28 27 25 23 21 17 12 10 11 11 13 16 19 22 26
28 35 52 67 68 21 10 11 23 14 13 22 25 33 32 28 23 21 19 19 21 22 17 8 17 16 16 10 7 5 6 17 26 28 30 31 30 30 27 23 21 20 15 12 8 9 6 6 10 16 19 24 26 31
38 53 51 51 36 9 6 10 17 18 15 16 30 39 34 31 26 26 28 26 26 30 24 30 29 27 7 2 6 8 12 19 27 28 33 35 32 28 25 22 18 15 11 6 2 4 9 12 17 19 23 28 30 30
63 67 60 44 10 8 5 10 8 15 19 22 24 35 39 36 38 38 34 35 34 34 33 30 30 35 27 20 19 11 13 21 22 23 31 34 33 29 25 20 16 12 7 3 4 8 13 16 17 25 27 27 32 31
57 44 19 11 9 8 7 14 8 13 14 12 31 34 31 39 45 42 49 47 44 41 35 26 25 19 22 20 23 22 23 27 28 31 34 33 28 25 23 18 13 8 5 5 9 13 15 23 20 23 28 28 30 32
22 9 9 13 11 7 11 14 11 9 14 17 13 27 25 35 32 37 25 45 48 47 42 34 29 29 24 24 27 28 30 30 31 31 32 31 28 24 20 15 8 4 3 5 9 12 14 17 24 23 26 28 28 29
5 6 10 2 8 11 12 11 15 11 15 19 22 17 23 20 12 20 24 44 52 57 36 34 35 38 36 33 32 31 32 35 36 34 30 27 24 20 15 11 7 5 3 6 9 12 16 20 23 26 28 26 28 30
3 9 12 15 17 13 14 13 17 20 20 19 15 15 27 22 25 23 27 48 39 32 25 42 40 39 39 36 39 37 33 31 32 32 27 24 21 17 14 12 10 9 9 5 9 14 19 21 25 26 24 27 31 33
4 8 13 11 7 11 12 15 17 16 17 14 17 20 9 10 12 22 34 34 42 19 23 45 37 35 30 34 28 31 33 25 23 23 24 20 16 11 11 12 11 12 13 10 13 17 21 23 22 22 25 28 26 26
10 6 9 12 14 17 12 16 18 14 12 15 12 13 10 10 5 1 10 10 12 17 20 26 39 34 36 32 29 27 25 25 28 23 16 13 11 8 9 8 11 24 21 17 14 13 16 22 23 24 26 25 25 28
10 11 12 15 12 10 14 12 18 17 21 20 18 18 26 12 5 7 7 6 8 14 23 28 27 29 28 33 30 28 31 23 17 21 24 21 17 15 14 13 13 11 11 12 23 24 21 21 21 24 23 22 26 30
7 20 10 14 23 14 19 22 20 24 23 23 22 22 19 14 13 13 10 9 11 15 20 26 30 36 38 36 33 30 25 25 30 30 29 25 22 18 17 15 14 13 14 16 16 18 30 24 20 15 20 22 28 25
10 22 10 10 11 19 19 19 18 14 18 17 17 21 20 14 18 20 17 17 17 18 21 24 28 33 33 33 33 33 30 29 28 24 22 19 21 18 16 15 14 15 14 14 19 21 17 17 17 18 18 20 19 23
9 12 9 6 8 14 18 22 16 17 16 18 21 23 21 17 15 18 24 25 24 25 26 29 28 28 27 27 24 26 25 25 26 20 20 22 14 14 15 14 14 12 16 18 12 11 16 17 13 12 15 17 15 19
14 15 19 11 11 11 14 12 7 9 16 19 23 22 23 17 12 15 14 30 31 26 25 30 26 23 24 24 24 25 26 25 30 27 26 25 27 22 17 10 13 10 10 8 8 10 9 8 6 7 10 12 14 17
Wind_Direction_500mb
195 192 196 194 189 192 214 218 215 215 245 263 301 331 352 358 8 21 319 6 21 286 34 6 341 322 290 254 232 128 170 198 207 240 237 233 163 214 248 60 201 223 230 236 235 289 272 128 143 244 111 131 107 90
194 189 205 203 197 193 214 230 234 229 245 274 285 315 339 351 4 17 1 352 351 290 345 49 50 42 360 335 328 198 24 139 27 244 233 18 185 150 271 250 161 243 289 359 331 36 112 173 18 138 153 145 156 150
208 196 178 183 190 195 214 235 243 255 246 266 285 302 320 344 353 15 15 360 17 294 199 210 91 8 21 1 267 280 130 350 278 261 289 359 12 341 237 221 265 193 187 266 290 259 198 193 176 172 181 175 174 175
216 210 202 202 199 214 229 242 253 256 251 258 273 288 304 331 341 3 16 13 358 295 288 105 52 355 2 11 359 287 295 303 154 313 186 190 252 211 266 310 300 7 142 247 261 255 189 208 201 196 194 190 186 182
200 207 207 211 208 217 230 234 246 255 256 259 263 273 287 311 328 343 356 354 18 6 342 16 286 271 14 26 25 28 47 238 200 191 142 204 63 225 252 308 259 211 262 230 317 17 253 47 207 207 203 202 198 191
195 202 204 208 212 218 231 237 240 246 253 257 261 266 271 288 318 10 290 327 1 22 355 282 62 300 334 351 15 16 50 51 97 238 101 84 93 262 202 247 117 128 222 284 314 23 1 7 302 236 218 212 206 202
201 196 199 200 208 219 217 225 234 236 241 248 256 266 268 270 281 274 278 320 342 18 350 274 215 181 226 256 294 334 23 63 21 136 144 152 166 259 264 268 50 225 259 289 256 281 272 265 267 243 235 220 207 204
201 200 201 210 212 208 210 220 222 224 229 240 249 259 264 261 271 312 252 332 1 334 296 287 280 253 190 209 210 335 310 2 23 40 198 206 163 240 250 256 264 276 279 276 265 254 262 267 272 258 239 218 203 207
197 198 195 200 201 198 202 200 202 210 219 229 237 256 270 258 233 236 254 280 329 206 296 252 258 202 157 184 230 183 251 229 120 238 232 186 194 224 258 251 231 255 266 283 278 265 244 240 243 208 209 199 213 214
197 196 195 194 201 197 196 193 192 198 204 200 168 178 203 212 206 195 276 223 241 223 238 254 256 263 221 164 181 184 230 253 230 217 127 234 252 244 199 222 247 258 261 264 267 259 240 230 218 223 225 228 221 231
193 194 195 198 197 199 201 195 186 186 173 151 180 194 270 178 139 195 221 222 178 216 213 231 245 251 200 233 197 227 194 173 234 158 233 228 246 227 211 246 259 263 263 253 246 255 259 242 246 225 222 211 202 201
191 193 194 196 198 198 195 192 184 167 188 184 172 185 138 192 208 207 203 193 220 223 168 205 206 229 139 231 254 176 245 195 258 119 234 250 129 135 176 236 253 274 276 205 206 204 194 158 136 127 124 109 108 110
190 190 192 192 194 194 192 186 180 179 173 171 183 177 187 177 142 210 191 194 202 195 172 178 171 176 161 210 229 188 224 223 115 212 223 282 124 122 128 177 209 174 165 148 151 159 147 137 128 123 107 95 96 90
188 189 190 190 190 190 188 183 178 174 169 202 178 302 210 196 219 201 207 209 163 161 173 184 171 197 205 182 216 223 222 138 225 224 232 147 140 139 138 122 128 156 165 166 159 156 145 128 114 103 94 94 86 69
184 186 186 187 187 183 178 172 169 176 171 235 213 226 203 228 213 201 101 133 125 173 176 189 179 217 188 221 201 236 166 233 211 232 110 140 150 146 131 118 113 116 128 138 141 134 129 121 106 94 85 79 74 67
179 181 189 184 180 178 171 167 166 150 179 237 251 249 237 208 205 199 204 191 170 181 179 199 186 213 197 229 199 203 220 225 232 116 121 148 146 138 126 121 117 115 114 115 117 118 115 107 97 90 81 69 61 53
177 182 191 179 175 177 169 171 164 166 192 224 221 231 261 253 219 184 189 192 184 192 199 195 210 195 216 213 226 214 231 266 128 131 146 152 147 138 133 127 122 119 117 114 110 105 100 96 90 78 63 46 28 10
175 189 190 176 173 179 170 160 158 196 217 215 213 193 211 229 228 190 201 179 187 200 220 219 317 218 208 211 217 225 173 102 129 136 145 153 147 141 137 133 128 124 118 113 108 102 96 86 68 41 21 356 352 330
181 191 185 178 179 155 139 182 186 229 231 217 219 199 205 218 219 234 198 200 207 225 227 214 234 222 231 261 311 83 139 166 154 144 148 152 150 147 143 138 131 125 121 115 109 98 64 47 32 7 348 338 325 321
185 183 180 177 176 168 149 173 191 215 223 214 217 222 226 225 217 213 220 213 206 205 214 234 239 235 238 53 109 297 194 175 164 158 157 159 159 153 148 145 147 140 128 117 85 95 20 350 330 330 323 325 326 315
173 176 175 186 179 156 190 165 180 220 209 211 213 218 225 220 222 221 221 218 215 219 229 233 246 249 194 349 349 242 204 184 183 184 175 168 167 165 162 157 147 155 156 156 186 320 352 322 316 313 315 316 312 304
155 162 157 165 134 161 228 206 207 187 208 218 207 211 223 231 234 231 230 228 225 234 234 244 243 240 235 250 249 244 214 192 186 179 172 170 171 173 172 171 173 171 178 215 292 315 318 316 298 313 318 311 307 310
139 137 136 148 141 158 184 170 195 204 206 219 221 226 220 226 226 227 239 240 236 232 241 238 241 256 247 246 224 216 196 184 182 179 176 177 177 175 173 171 169 178 223 261 298 310 309 310 324 315 315 318 309 306
113 135 153 157 158 122 161 185 200 237 217 212 219 216 225 230 220 224 237 234 233 237 217 226 235 239 222 208 200 202 198 191 185 179 178 175 174 173 176 177 175 194 235 288 301 309 310 316 321 319 312 310 311 311
140 147 136 246 168 153 169 184 195 234 231 206 228 225 223 209 222 239 243 236 237 235 222 214 229 230 221 217 207 195 189 191 184 180 181 185 182 179 181 183 197 217 294 304 303 313 318 318 317 314 317 321 319 319
176 168 181 199 173 174 195 195 204 208 240 228 212 232 242 243 242 243 233 244 250 213 211 226 213 217 217 209 185 180 188 182 187 186 187 186 190 201 206 214 234 258 281 297 300 299 302 308 311 314 318 320 322 320
242 186 205 210 187 213 247 233 223 213 207 221 213 208 210 222 241 235 237 223 233 222 233 227 210 221 193 184 181 175 185 183 182 197 188 181 184 187 200 222 241 239 242 271 287 297 303 309 309 307 311 317 317 320
226 268 210 216 201 216 263 256 251 227 230 229 203 206 220 219 226 308 149 203 198 222 213 241 207 208 199 188 169 164 172 179 187 167 171 174 185 206 228 225 232 253 258 270 274 280 299 303 300 300 306 309 313 317
218 212 214 210 191 222 219 239 235 227 228 239 223 232 239 261 232 226 230 216 214 214 212 218 221 209 185 180 182 183 200 199 199 208 211 224 230 252 248 235 243 264 264 270 290 303 304 306 296 294 295 298 312 320
219 187 206 233 209 212 222 211 238 249 255 250 249 248 238 226 213 216 214 211 216 226 225 223 216 212 208 205 207 207 207 207 206 219 231 234 242 235 228 229 240 252 262 267 277 284 294 313 317 308 297 304 311 327
187 180 208 232 247 234 225 220 234 249 239 236 234 246 250 240 241 239 229 223 213 212 210 212 212 210 210 211 209 203 207 205 205 199 198 204 205 208 217 229 238 245 253 262 260 277 294 298 287 280 285 302 314 328
202 217 210 235 224 214 197 197 205 222 217 222 231 233 227 222 232 240 228 216 208 205 204 199 200 194 193 192 191 194 201 195 201 201 211 205 207 209 217 225 237 246 247 264 277 289 291 294 282 283 288 304 328 327
198 193 210 235 195 197 213 203 222 248 225 230 235 229 210 206 232 240 220 213 208 201 201 197 199 197 190 189 190 192 184 191 197 207 205 198 194 200 198 209 223 230 235 230 245 285 309 318 314 314 327 334 327 321
Wind_Speed_850mb
54 50 56 42 35 27 23 16 10 7 5 5 7 10 13 17 20 20 10 26 10 12 9 6 9 10 9 17 10 15 11 10 13 15 10 9 6 12 11 10 8 10 10 14 12 10 18 22 18 8 17 17 14 8
37 49 59 47 40 32 24 26 16 10 7 7 7 10 12 15 17 19 8 23 11 3 10 6 7 6 2 8 11 9 7 7 8 11 7 4 7 6 6 14 13 15 17 9 9 10 7 19 3 19 21 16 13 10
43 37 42 49 40 31 26 24 22 17 13 10 10 10 11 14 18 18 18 25 9 5 6 5 5 8 10 11 5 8 5 3 2 3 2 4 4 9 10 16 21 13 7 11 14 19 12 22 10 20 22 17 16 15
51 46 47 47 41 36 35 31 30 25 19 15 14 12 11 12 14 17 15 20 12 10 9 9 3 5 14 12 8 4 7 3 8 2 5 5 5 3 12 11 11 12 5 8 16 25 9 18 27 23 25 21 21 20
56 58 50 52 47 45 41 36 32 28 24 20 17 16 13 11 12 12 11 14 16 6 12 10 3 2 8 11 11 7 3 3 8 10 5 4 5 3 7 12 16 23 15 12 7 20 5 12 18 26 28 29 27 25
52 55 50 48 45 47 45 43 39 36 31 24 19 18 17 13 10 8 2 9 12 13 8 6 4 2 4 4 8 8 6 3 2 5 8 4 3 5 7 13 11 3 5 10 13 8 6 3 3 10 27 31 31 28
52 54 50 44 42 40 39 36 36 36 33 27 21 18 18 14 8 3 2 13 14 5 4 10 7 3 7 4 5 4 8 7 4 4 2 4 8 5 8 14 1 11 12 17 15 15 19 20 15 10 19 29 34 31
53 52 53 48 47 36 34 30 32 34 32 27 22 18 16 13 8 7 9 8 11 3 6 9 3 6 6 7 7 4 3 2 6 5 3 7 3 8 8 12 14 18 21 22 23 22 21 14 14 12 15 23 34 35
51 54 51 49 47 39 30 26 26 28 27 23 16 10 8 5 2 8 8 7 7 1 10 6 10 5 9 6 2 5 4 7 5 9 8 7 7 9 7 18 14 17 15 17 15 20 19 18 14 7 10 16 26 33
46 52 53 48 52 41 34 28 23 21 20 16 10 2 6 9 8 6 1 3 3 7 9 13 11 4 8 9 10 6 4 8 8 11 7 8 19 31 17 11 16 20 20 17 14 17 17 16 15 13 14 14 18 22
44 48 56 55 46 45 42 33 24 18 17 11 10 8 5 9 9 6 8 11 14 9 16 20 20 15 8 10 8 7 4 10 7 8 6 9 13 27 13 11 16 18 21 23 24 21 11 10 6 6 6 7 7 8
44 44 50 55 55 48 40 37 30 25 13 18 11 8 10 6 9 11 9 10 11 12 17 23 25 21 7 4 7 7 6 5 8 11 7 8 7 13 8 8 12 11 9 13 18 19 14 11 12 14 14 13 11 9
44 42 45 51 56 54 45 37 36 30 21 11 7 12 10 9 2 12 16 11 11 13 13 11 12 18 4 10 11 9 10 12 8 8 8 5 14 10 6 3 5 9 12 15 15 19 18 17 17 16 16 15 13 10
45 43 43 49 54 53 48 40 40 30 18 11 15 3 12 11 13 12 15 19 12 12 18 24 23 16 22 17 12 9 10 6 9 10 20 9 15 11 10 9 10 15 17 17 18 20 22 19 21 21 20 19 18 17
46 42 43 46 51 53 48 46 39 36 20 7 10 9 17 18 13 22 7 7 10 12 20 22 17 18 18 10 9 11 10 11 12 19 6 24 21 20 20 20 21 21 20 19 19 20 21 20 24 27 25 24 23 21
45 41 44 47 53 56 55 48 42 22 9 6 10 12 17 16 19 21 18 15 14 19 22 19 10 9 13 9 16 15 11 12 8 11 19 24 27 26 25 26 26 27 28 29 28 27 26 24 26 26 24 22 21 20
46 30 46 50 60 54 57 46 26 14 14 10 16 24 22 14 16 23 18 18 17 21 16 11 10 13 12 13 20 14 22 12 21 19 20 25 28 28 28 29 30 31 30 29 28 26 25 23 21 19 19 17 15 16
38 32 39 59 68 56 58 23 13 15 17 23 23 21 21 17 6 9 16 12 16 22 23 8 9 12 10 15 15 18 8 9 13 25 28 30 30 30 29 30 29 28 28 26 24 22 19 16 13 13 14 17 18 19
31 33 52 66 71 44 14 20 13 10 21 25 36 12 18 18 19 10 8 13 20 10 8 10 11 12 15 10 12 5 14 17 21 25 29 30 30 31 30 28 27 25 23 21 17 12 10 11 11 13 16 19 22 26
28 35 52 67 68 21 10 11 23 14 13 22 25 33 32 28 23 21 19 19 21 22 17 8 17 16 16 10 7 5 6 17 26 28 30 31 30 30 27 23 21 20 15 12 8 9 6 6 10 16 19 24 26 31
38 53 51 51 36 9 6 10 17 18 15 16 30 39 34 31 26 26 28 26 26 30 24 30 29 27 7 2 6 8 12 19 27 28 33 35 32 28 25 22 18 15 11 6 2 4 9 12 17 19 23 28 30 30
63 67 60 44 10 8 5 10 8 15 19 22 24 35 39 36 38 38 34 35 34 34 33 30 30 35 27 20 19 11 13 21 22 23 31 34 33 29 25 20 16 12 7 3 4 8 13 16 17 25 27 27 32 31
57 44 19 11 9 8 7 14 8 13 14 12 31 34 31 39 45 42 49 47 44 41 35 26 25 19 22 20 23 22 23 27 28 31 34 33 28 25 23 18 13 8 5 5 9 13 15 23 20 23 28 28 30 32
22 9 9 13 11 7 11 14 11 9 14 17 13 27 25 35 32 37 25 45 48 47 42 34 29 29 24 24 27 28 30 30 31 31 32 31 28 24 20 15 8 4 3 5 9 12 14 17 24 23 26 28 28 29
5 6 10 2 8 11 12 11 15 11 15 19 22 17 23 20 12 20 24 44 52 57 36 34 35 38 36 33 32 31 32 35 36 34 30 27 24 20 15 11 7 5 3 6 9 12 16 20 23 26 28 26 28 30
3 9 12 15 17 13 14 13 17 20 20 19 15 15 27 22 25 23 27 48 39 32 25 42 40 39 39 36 39 37 33 31 32 32 27 24 21 17 14 12 10 9 9 5 9 14 19 21 25 26 24 27 31 33
4 8 13 11 7 11 12 15 17 16 17 14 17 20 9 10 12 22 34 34 42 19 23 45 37 35 30 34 28 31 33 25 23 23 24 20 16 11 11 12 11 12 13 10 13 17 21 23 22 22 25 28 26 26
10 6 9 12 14 17 12 16 18 14 12 15 12 13 10 10 5 1 10 10 12 17 20 26 39 34 36 32 29 27 25 25 28 23 16 13 11 8 9 8 11 24 21 17 14 13 16 22 23 24 26 25 25 28
10 11 12 15 12 10 14 12 18 17 21 20 18 18 26 12 5 7 7 6 8 14 23 28 27 29 28 33 30 28 31 23 17 21 24 21 17 15 14 13 13 11 11 12 23 24 21 21 21 24 23 22 26 30
7 20 10 14 23 14 19 22 20 24 23 23 22 22 19 14 13 13 10 9 11 15 20 26 30 36 38 36 33 30 25 25 30 30 29 25 22 18 17 15 14 13 14 16 16 18 30 24 20 15 20 22 28 25
10 22 10 10 11 19 19 19 18 14 18 17 17 21 20 14 18 20 17 17 17 18 21 24 28 33 33 33 33 33 30 29 28 24 22 19 21 18 16 15 14 15 14 14 19 21 17 17 17 18 18 20 19 23
9 12 9 6 8 14 18 22 16 17 16 18 21 23 21 17 15 18 24 25 24 25 26 29 28 28 27 27 24 26 25 25 26 20 20 22 14 14 15 14 14 12 16 18 12 11 16 17 13 12 15 17 15 19
14 15 19 11 11 11 14 12 7 9 16 19 23 22 23 17 12 15 14 30 31 26 25 30 26 23 24 24 24 25 26 25 30 27 26 25 27 22 17 10 13 10 10 8 8 10 9 8 6 7 10 12 14 17
Wind_Direction_850mb
195 192 196 194 189 192 214 218 215 215 245 263 301 331 352 358 8 21 319 6 21 286 34 6 341 322 290 254 232 128 170 198 207 240 237 233 163 214 248 60 201 223 230 236 235 289 272 128 143 244 111 131 107 90
194 189 205 203 197 193 214 230 234 229 245 274 285 315 339 351 4 17 1 352 351 290 345 49 50 42 360 335 328 198 24 139 27 244 233 18 185 150 271 250 161 243 289 359 331 36 112 173 18 138 153 145 156 150
208 196 178 183 190 195 214 235 243 255 246 266 285 302 320 344 353 15 15 360 17 294 199 210 91 8 21 1 267 280 130 350 278 261 289 359 12 341 237 221 265 193 187 266 290 259 198 193 176 172 181 175 174 175
216 210 202 202 199 214 229 242 253 256 251 258 273 288 304 331 341 3 16 13 358 295 288 105 52 355 2 11 359 287 295 303 154 313 186 190 252 211 266 310 300 7 142 247 261 255 189 208 201 196 194 190 186 182
200 207 207 211 208 217 230 234 246 255 256 259 263 273 287 311 328 343 356 354 18 6 342 16 286 271 14 26 25 28 47 238 200 191 142 204 63 225 252 308 259 211 262 230 317 17 253 47 207 207 203 202 198 191
195 202 204 208 212 218 231 237 240 246 253 257 261 266 271 288 318 10 290 327 1 22 355 282 62 300 334 351 15 16 50 51 97 238 101 84 93 262 202 247 117 128 222 284 314 23 1 7 302 236 218 212 206 202
201 196 199 200 208 219 217 225 234 236 241 248 256 266 268 270 281 274 278 320 342 18 350 274 215 181 226 256 294 334 23 63 21 136 144 152 166 259 264 268 50 225 259 289 256 281 272 265 267 243 235 220 207 204
201 200 201 210 212 208 210 220 222 224 229 240 249 259 264 261 271 312 252 332 1 334 296 287 280 253 190 209 210 335 310 2 23 40 198 206 163 240 250 256 264 276 279 276 265 254 262 267 272 258 239 218 203 207
197 198 195 200 201 198 202 200 202 210 219 229 237 256 270 258 233 236 254 280 329 206 296 252 258 202 157 184 230 183 251 229 120 238 232 186 194 224 258 251 231 255 266 283 278 265 244 240 243 208 209 199 213 214
197 196 195 194 201 197 196 193 192 198 204 200 168 178 203 212 206 195 276 223 241 223 238 254 256 263 221 164 181 184 230 253 230 217 127 234 252 244 199 222 247 258 261 264 267 259 240 230 218 223 225 228 221 231
193 194 195 198 197 199 201 195 186 186 173 151 180 194 270 178 139 195 221 222 178 216 213 231 245 251 200 233 197 227 194 173 234 158 233 228 246 227 211 246 259 263 263 253 246 255 259 242 246 225 222 211 202 201
191 193 194 196 198 198 195 192 184 167 188 184 172 185 138 192 208 207 203 193 220 223 168 205 206 229 139 231 254 176 245 195 258 119 234 250 129 135 176 236 253 274 276 205 206 204 194 158 136 127 124 109 108 110
190 190 192 192 194 194 192 186 180 179 173 171 183 177 187 177 142 210 191 194 202 195 172 178 171 176 161 210 229 188 224 223 115 212 223 282 124 122 128 177 209 174 165 148 151 159 147 137 128 123 107 95 96 90
188 189 190 190 190 190 188 183 178 174 169 202 178 302 210 196 219 201 207 209 163 161 173 184 171 197 205 182 216 223 222 138 225 224 232 147 140 139 138 122 128 156 165 166 159 156 145 128 114 103 94 94 86 69
184 186 186 187 187 183 178 172 169 176 171 235 213 226 203 228 213 201 101 133 125 173 176 189 179 217 188 221 201 236 166 233 211 232 110 140 150 146 131 118 113 116 128 138 141 134 129 121 106 94 85 79 74 67
179 181 189 184 180 178 171 167 166 150 179 237 251 249 237 208 205 199 204 191 170 181 179 199 186 213 197 229 199 203 220 225 232 116 121 148 146 138 126 121 117 115 114 115 117 118 115 107 97 90 81 69 61 53
177 182 191 179 175 177 169 171 164 166 192 224 221 231 261 253 219 184 189 192 184 192 199 195 210 195 216 213 226 214 231 266 128 131 146 152 147 138 133 127 122 119 117 114 110 105 100 96 90 78 63 46 28 10
175 189 190 176 173 179 170 160 158 196 217 215 213 193 211 229 228 190 201 179 187 200 220 219 317 218 208 211 217 225 173 102 129 136 145 153 147 141 137 133 128 124 118 113 108 102 96 86 68 41 21 356 352 330
181 191 185 178 179 155 139 182 186 229 231 217 219 199 205 218 219 234 198 200 207 225 227 214 234 222 231 261 311 83 139 166 154 144 148 152 150 147 143 138 131 125 121 115 109 98 64 47 32 7 348 338 325 321
185 183 180 177 176 168 149 173 191 215 223 214 217 222 226 225 217 213 220 213 206 205 214 234 239 235 238 53 109 297 194 175 164 158 157 159 159 153 148 145 147 140 128 117 85 95 20 350 330 330 323 325 326 315
173 176 175 186 179 156 190 165 180 220 209 211 213 218 225 220 222 221 221 218 215 219 229 233 246 249 194 349 349 242 204 184 183 184 175 168 167 165 162 157 147 155 156 156 186 320 352 322 316 313 315 316 312 304
155 162 157 165 134 161 228 206 207 187 208 218 207 211 223 231 234 231 230 228 225 234 234 244 243 240 235 250 249 244 214 192 186 179 172 170 171 173 172 171 173 171 178 215 292 315 318 316 298 313 318 311 307 310
139 137 136 148 141 158 184 170 195 204 206 219 221 226 220 226 226 227 239 240 236 232 241 238 241 256 247 246 224 216 196 184 182 179 176 177 177 175 173 171 169 178 223 261 298 310 309 310 324 315 315 318 309 306
113 135 153 157 158 122 161 185 200 237 217 212 219 216 225 230 220 224 237 234 233 237 217 226 235 239 222 208 200 202 198 191 185 179 178 175 174 173 176 177 175 194 235 288 301 309 310 316 321 319 312 310 311 311
140 147 136 246 168 153 169 184 195 234 231 206 228 225 223 209 222 239 243 236 237 235 222 214 229 230 221 217 207 195 189 191 184 180 181 185 182 179 181 183 197 217 294 304 303 313 318 318 317 314 317 321 319 319
176 168 181 199 173 174 195 195 204 208 240 228 212 232 242 243 242 243 233 244 250 213 211 226 213 217 217 209 185 180 188 182 187 186 187 186 190 201 206 214 234 258 281 297 300 299 302 308 311 314 318 320 322 320
242 186 205 210 187 213 247 233 223 213 207 221 213 208 210 222 241 235 237 223 233 222 233 227 210 221 193 184 181 175 185 183 182 197 188 181 184 187 200 222 241 239 242 271 287 297 303 309 309 307 311 317 317 320
226 268 210 216 201 216 263 256 251 227 230 229 203 206 220 219 226 308 149 203 198 222 213 241 207 208 199 188 169 164 172 179 187 167 171 174 185 206 228 225 232 253 258 270 274 280 299 303 300 300 306 309 313 317
218 212 214 210 191 222 219 239 235 227 228 239 223 232 239 261 232 226 230 216 214 214 212 218 221 209 185 180 182 183 200 199 199 208 211 224 230 252 248 235 243 264 264 270 290 303 304 306 296 294 295 298 312 320
219 187 206 233 209 212 222 211 238 249 255 250 249 248 238 226 213 216 214 211 216 226 225 223 216 212 208 205 207 207 207 207 206 219 231 234 242 235 228 229 240 252 262 267 277 284 294 313 317 308 297 304 311 327
187 180 208 232 247 234 225 220 234 249 239 236 234 246 250 240 241 239 229 223 213 212 210 212 212 210 210 211 209 203 207 205 205 199 198 204 205 208 217 229 238 245 253 262 260 277 294 298 287 280 285 302 314 328
202 217 210 235 224 214 197 197 205 222 217 222 231 233 227 222 232 240 228 216 208 205 204 199 200 194 193 192 191 194 201 195 201 201 211 205 207 209 217 225 237 246 247 264 277 289 291 294 282 283 288 304 328 327
198 193 210 235 195 197 213 203 222 248 225 230 235 229 210 206 232 240 220 213 208 201 201 197 199 197 190 189 190 192 184 191 197 207 205 198 194 200 198 209 223 230 235 230 245 285 309 318 314 314 327 334 327 321